Home   Weather   Herzogenrath   Past weeks

Flag for Germany Past Weather in Herzogenrath, North Rhine-Westphalia, Germany — Yesterday and Last 2 Weeks

Now
66 °F

Partly cloudy.


Feels Like: 66 °F
Forecast: 55 / 69 °F
Wind: 2 mph from West

Location: Geilenkirchen Airport

Current Time: Jul 27, 2017 at 10:52:01 pm

Latest Report: Jul 27, 2017 at 9:50 pm


Visibility: N/A

Pressure: 29.77 "Hg

Humidity: 68%

Dew Point: 55 °F

Location of HerzogenrathLocation

Past Weather in Herzogenrath — Graph

°F

Herzogenrath Temperature Yesterday

Maximum temperature yesterday: 73 °F (at 4:50 pm)
Minimum temperature yesterday: 59 °F (at 12:50 am)
Average temperature yesterday: 66 °F

High & Low Weather Summary for the Past Weeks

 TemperatureHumidityPressure
High88 °F (Jul 19, 11:50 am)100% (Jul 13, 2:50 am)30.24 "Hg (Jul 13, 2:50 am)
Low45 °F (Jul 13, 4:50 am)39% (Jul 21, 3:50 pm)29.74 "Hg (Jul 27, 4:50 am)
Average65 °F74%29.95 "Hg
* Reported Jul 12 9:50 pm — Jul 27 9:50 pm, Herzogenrath. Weather by CustomWeather, © 2017

Note: Actual official high and low records may vary slightly from our data, if they occured in-between our weather recording intervals... More about our weather records

Advertising

Herzogenrath Weather History for the Previous 24 Hours

Scroll right to see more
 ConditionsComfort  
Time TempWeatherWind HumidityBarometerVisibility
9:50 pm
Thu, Jul 27
66 °FPartly cloudy.2 mph68%29.77 "HgN/A
8:50 pm68 °FBroken clouds.2 mph64%29.77 "HgN/A
7:50 pm68 °FScattered clouds.5 mph64%29.74 "HgN/A
6:50 pm70 °FScattered clouds.12 mph60%29.74 "HgN/A
5:50 pm70 °FScattered clouds.13 mph60%29.77 "HgN/A
4:50 pm70 °FBroken clouds.7 mph60%29.77 "HgN/A
3:50 pm68 °FPartly sunny.13 mph69%29.77 "HgN/A
2:50 pm68 °FBroken clouds.13 mph64%29.77 "HgN/A
1:50 pm68 °FBroken clouds.13 mph69%29.80 "HgN/A
12:50 pm66 °FBroken clouds.12 mph68%29.80 "HgN/A
11:50 am66 °FBroken clouds.14 mph64%29.80 "HgN/A
10:50 am66 °FBroken clouds.13 mph68%29.80 "HgN/A
9:50 am63 °FPartly sunny.16 mph83%29.80 "HgN/A
8:50 am63 °FBroken clouds.13 mph88%29.77 "HgN/A
7:50 am64 °FBroken clouds.14 mph88%29.77 "HgN/A
7:04 am64 °FBroken clouds.8 mph94%29.74 "HgN/A
6:50 am64 °FBroken clouds.7 mph94%29.77 "HgN/A
6:25 am64 °FBroken clouds.8 mph94%29.74 "Hg5 mi
5:51 am64 °FPartly cloudy.7 mph94%29.74 "Hg3 mi
5:50 am64 °FPartly cloudy.6 mph94%29.74 "Hg5 mi
4:50 am64 °FPartly cloudy.7 mph94%29.74 "HgN/A
3:50 am63 °FPassing clouds.6 mph100%29.77 "HgN/A
2:50 am63 °FDrizzle. Mostly cloudy.2 mph100%29.77 "Hg1 mi
11:50 pm
Wed, Jul 26
68 °FPassing clouds.9 mph73%29.80 "HgN/A
10:50 pm70 °FPassing clouds.13 mph69%29.80 "HgN/A
Weather by CustomWeather, © 2017

See weather overviewHow to use our weather pages